Theta_e
335 334 335 335 335 335 335 335 334 335 335 335 336 336 337 336 335 335 335 335 334 334 334 335 335 336 336 335 335 335 335 335 335 336 336 336 336 335 335 335 336 336 335 335 335 334 334 334 333 333 333 333 333 332 331 331 331 331 332 331 331 330 329 329 328 329 329 329 329 328 327 327 328 327 325 324 325 325 326 326 326 326 327 325 320
334 334 334 333 335 335 335 334 334 334 334 334 334 335 335 335 335 334 334 334 334 334 334 335 335 335 335 335 335 334 334 334 335 336 336 336 336 335 335 334 336 336 335 336 336 334 334 334 333 333 333 332 332 332 331 331 331 331 332 331 330 329 329 328 328 329 329 328 328 328 328 328 328 327 327 326 326 326 327 327 327 327 327 324 319
338 335 334 333 334 334 335 334 333 333 333 333 333 334 334 333 333 333 333 333 333 334 334 335 335 335 335 334 334 334 333 333 334 335 335 335 335 335 335 335 336 336 336 336 336 334 334 334 333 333 333 332 332 331 330 331 332 331 332 330 329 329 329 328 328 329 328 328 328 328 329 329 328 328 328 328 328 328 328 328 328 328 328 324 320
340 335 334 333 333 334 335 334 333 333 332 332 332 333 333 333 333 332 332 333 333 333 334 334 335 335 335 334 333 333 333 333 333 334 334 333 333 334 335 335 336 336 336 336 334 334 333 333 333 333 332 331 331 331 331 331 332 331 331 330 328 329 328 328 328 328 328 328 328 328 328 329 330 329 328 328 329 328 328 328 328 328 328 326 323
336 335 334 332 333 334 334 334 334 333 332 332 331 331 331 331 332 332 332 333 334 334 334 334 334 334 334 334 334 333 333 333 333 334 334 334 333 334 335 335 336 336 336 335 334 333 332 331 333 333 332 332 331 331 332 332 332 331 331 330 329 329 329 328 328 328 328 328 327 328 328 329 330 328 328 328 328 328 328 328 328 327 328 328 325
333 333 333 333 333 333 333 333 334 333 333 333 332 330 330 331 331 332 332 333 334 334 334 334 334 334 334 334 333 332 332 333 333 334 334 334 334 333 334 335 335 334 334 334 333 332 331 332 333 332 332 332 331 331 331 332 332 332 331 330 330 330 329 328 328 328 328 328 327 327 327 328 328 328 328 328 327 328 328 328 328 327 328 329 327
330 330 331 332 332 332 332 332 331 330 331 333 333 332 331 332 332 333 333 333 333 333 334 335 334 334 334 334 332 331 331 331 332 334 334 335 334 334 333 333 333 334 333 333 332 331 331 332 332 332 332 332 332 331 331 331 332 332 332 331 330 330 329 328 328 328 328 327 327 327 326 326 327 327 327 327 328 328 328 328 328 328 328 328 327
326 326 327 328 329 329 329 328 327 327 328 330 332 332 333 333 332 332 333 333 332 334 335 335 335 334 334 332 331 330 330 330 331 333 334 334 334 334 334 332 332 333 334 332 332 331 331 332 332 332 332 332 333 333 331 330 332 333 331 331 330 330 330 329 328 328 328 328 327 326 326 327 327 326 326 326 327 328 327 327 327 328 329 328 328
323 323 324 324 325 326 326 326 326 326 327 328 330 331 332 332 333 332 333 333 333 335 336 336 335 334 334 331 331 331 330 330 330 331 333 333 333 333 332 331 330 330 332 333 332 332 331 331 332 331 332 333 333 333 332 329 331 333 331 331 330 330 330 330 329 329 328 328 327 326 327 327 326 326 326 326 326 327 327 326 326 327 328 328 328
320 320 321 321 321 322 323 324 325 326 326 328 329 329 329 330 331 332 332 333 334 335 336 336 335 334 334 333 332 331 331 330 330 331 331 331 331 331 330 329 329 329 330 331 331 332 331 331 332 332 331 333 333 333 332 330 329 332 332 331 331 330 330 330 329 330 329 329 328 327 327 327 326 325 325 326 326 325 326 326 325 326 327 327 328
318 318 318 318 318 318 320 321 321 323 325 326 327 326 327 327 328 330 330 331 333 334 335 335 334 334 334 334 333 331 331 330 329 330 330 330 330 330 330 329 329 329 328 329 330 331 331 331 332 333 331 332 331 331 332 330 329 332 332 331 331 331 330 330 330 330 330 329 328 328 328 327 326 326 325 326 325 324 325 325 323 324 326 326 327
315 315 315 315 316 316 317 317 318 318 320 322 323 324 325 326 326 327 328 328 330 331 332 332 332 333 334 334 332 331 330 330 329 329 329 329 330 330 330 330 330 329 329 329 329 330 331 332 333 332 331 331 330 330 331 329 330 332 332 332 332 331 331 331 330 330 329 329 329 328 328 328 327 327 326 326 326 324 325 324 322 324 324 323 326
313 313 313 313 313 314 314 315 315 315 316 317 319 321 323 324 325 326 326 327 328 328 328 329 329 330 332 333 332 331 331 330 330 330 329 329 329 329 330 330 330 330 330 330 329 329 330 332 333 333 331 331 330 330 331 331 331 331 331 332 332 331 332 331 331 331 330 329 329 329 328 328 328 328 327 327 326 325 324 322 321 323 323 321 323
312 311 311 311 312 312 313 313 313 313 314 314 315 317 319 321 323 324 326 326 326 326 326 328 328 328 330 331 331 332 331 331 330 330 330 329 329 330 330 330 330 330 330 330 330 329 330 332 333 333 332 331 330 330 330 332 332 330 330 332 332 332 332 332 331 331 330 330 329 329 329 329 329 328 327 327 326 325 324 322 320 321 321 319 320
311 310 311 311 311 311 311 312 312 312 312 313 314 315 316 318 320 322 325 326 327 326 326 328 328 328 329 330 331 332 331 330 330 331 331 330 329 329 330 330 330 330 329 328 329 330 331 332 332 332 331 331 331 329 329 331 332 331 330 330 331 332 331 331 331 330 330 330 330 329 329 329 329 329 327 327 327 326 325 324 322 320 319 317 317
311 310 310 310 310 310 310 310 311 310 311 311 312 313 314 315 317 320 323 325 326 327 327 328 328 328 328 329 330 330 330 329 329 330 330 330 330 329 329 329 329 329 329 328 328 330 331 331 331 331 331 330 331 330 329 331 332 332 331 329 329 331 331 331 331 330 330 330 329 329 329 329 329 329 328 327 327 326 325 325 324 322 321 318 316
310 309 309 309 309 309 309 309 309 309 310 310 310 311 312 313 314 317 320 323 324 326 327 328 329 329 328 328 328 327 328 328 328 329 329 330 330 330 330 330 329 329 329 329 329 330 331 331 331 332 331 330 330 331 331 331 332 332 331 330 330 332 332 331 331 331 331 330 329 329 329 329 329 328 328 327 326 326 325 325 324 323 323 320 318
309 309 309 309 308 308 308 308 308 308 308 308 309 309 309 310 311 313 315 317 320 323 325 326 328 328 328 328 328 327 327 327 328 328 328 329 330 330 330 330 329 329 329 329 329 331 331 331 332 333 332 330 330 331 332 332 332 333 332 332 332 333 332 332 332 332 332 331 329 330 330 329 329 329 328 327 327 326 325 324 324 324 324 321 318
308 308 308 308 308 308 307 307 307 307 307 307 307 307 308 308 309 310 312 313 317 321 324 325 326 327 328 328 328 328 327 327 327 327 328 329 330 330 331 330 330 329 328 329 330 331 331 330 331 332 332 330 330 331 333 332 333 333 332 332 332 333 332 332 332 332 331 331 329 330 330 330 330 329 328 328 327 327 325 324 323 323 323 322 319
307 307 307 307 307 307 306 306 306 306 306 306 306 306 306 306 307 308 310 312 315 318 321 324 326 326 327 328 328 328 328 327 327 327 327 328 329 330 331 330 330 329 328 329 330 330 331 331 331 332 331 330 330 331 332 332 333 333 332 332 332 333 332 332 332 331 331 330 329 330 330 330 330 329 329 328 327 327 326 324 323 322 322 322 320
307 306 306 306 306 306 305 305 305 305 305 305 305 305 305 305 305 306 307 308 310 313 317 322 325 326 326 328 328 328 328 328 328 327 327 327 328 329 330 330 330 329 328 328 328 329 331 332 331 331 330 331 331 331 332 332 332 332 331 331 331 332 332 331 330 330 330 330 330 330 330 329 329 329 329 329 328 327 327 325 323 322 321 320 320
306 305 306 306 305 304 304 304 304 304 304 304 304 304 304 304 304 305 305 306 307 309 312 317 321 324 325 327 328 328 328 328 328 328 328 328 328 328 329 330 330 329 329 329 328 329 331 332 330 330 330 331 332 331 332 332 332 331 331 330 330 331 331 330 330 329 329 330 330 330 330 329 329 329 329 329 328 328 327 326 323 321 321 320 319
305 305 305 304 304 303 303 303 303 303 303 303 303 303 303 303 304 304 305 305 306 307 308 312 316 320 323 325 327 328 328 328 328 328 329 329 328 328 329 329 330 330 329 329 329 331 331 331 330 330 331 331 332 331 332 332 332 331 330 330 330 330 330 330 330 330 330 330 330 330 330 329 328 328 329 328 327 327 327 326 324 322 321 319 318
304 304 304 303 302 302 302 302 302 302 302 302 303 303 303 303 303 303 304 305 306 306 307 309 312 316 321 323 325 327 328 328 327 327 328 328 328 328 328 329 329 329 329 330 330 331 331 331 330 330 331 331 332 332 332 332 332 331 330 330 330 329 330 330 329 330 330 330 330 330 329 329 329 328 328 327 326 327 326 326 326 325 323 320 319
302 303 302 302 301 300 301 301 301 301 301 301 302 302 302 302 303 303 303 304 305 306 307 308 311 314 318 320 322 324 326 327 328 327 327 327 328 328 328 328 328 327 328 329 330 330 330 330 330 330 330 330 331 332 332 331 331 330 330 330 330 329 329 330 329 329 330 330 330 330 330 330 330 329 328 328 327 326 326 326 327 326 326 324 322
302 301 301 301 300 300 300 300 300 300 300 301 301 301 302 302 302 303 303 304 304 305 306 307 309 311 314 316 318 320 322 324 327 328 327 326 327 328 328 328 327 327 327 328 328 329 329 329 330 330 330 330 330 331 331 331 331 330 330 331 330 329 329 329 329 330 330 331 331 330 330 330 331 330 330 329 328 327 327 327 327 327 327 327 326
301 301 301 300 300 300 300 300 300 300 300 301 301 301 301 302 302 303 303 303 304 305 305 305 306 308 310 313 315 316 318 321 323 326 327 326 326 327 328 328 327 327 327 327 328 328 329 329 329 329 329 330 330 330 330 330 331 330 330 331 330 330 330 329 330 330 331 331 330 330 330 330 330 330 330 330 330 329 327 327 328 327 327 327 326
301 300 300 300 300 300 300 300 300 300 300 301 301 301 301 301 302 302 303 303 303 304 304 305 305 306 307 309 311 314 316 318 321 323 326 327 326 327 327 327 327 328 328 328 328 329 329 329 328 329 329 330 329 329 329 330 331 331 330 331 330 330 330 330 330 331 330 330 329 328 329 329 329 329 328 329 329 329 328 327 327 327 327 326 326
301 301 300 300 300 299 299 300 300 300 300 300 301 301 301 301 302 302 303 303 303 304 304 304 305 305 305 306 308 311 314 316 319 321 324 326 326 326 326 326 326 327 328 328 328 329 329 329 329 328 328 329 329 328 329 330 331 331 330 330 330 330 330 330 330 330 330 329 329 329 329 329 329 328 328 328 328 328 327 327 327 327 327 326 325
300 300 300 299 299 299 299 299 300 300 300 300 301 301 301 301 302 302 302 303 303 304 304 304 305 305 305 305 306 309 312 314 317 319 322 324 326 326 326 326 326 326 327 327 328 329 329 329 329 329 328 328 328 328 330 330 330 330 330 330 330 330 330 330 329 329 329 329 328 329 329 329 329 328 328 328 328 327 326 326 325 325 326 325 324
299 300 299 299 298 298 298 299 299 300 300 300 301 301 301 301 301 302 302 302 303 303 304 304 304 304 305 305 305 307 310 312 315 317 320 323 325 326 326 325 325 325 326 327 327 328 329 329 329 328 327 327 328 329 330 330 330 330 329 329 329 329 329 329 329 329 329 329 329 329 329 329 328 328 329 329 328 328 327 326 325 324 324 324 323
299 299 299 298 297 297 298 298 299 300 300 300 300 301 301 301 301 301 301 302 303 303 303 304 304 304 304 304 305 305 307 310 313 316 319 321 324 326 326 325 325 326 326 327 327 328 328 328 328 328 328 327 328 329 329 329 330 329 328 328 328 328 328 328 329 329 329 329 329 329 328 327 327 327 327 327 328 328 327 326 325 324 324 323 323
299 299 299 298 297 297 298 298 299 299 300 300 300 300 300 300 301 301 301 302 302 302 303 303 303 304 304 304 304 305 305 307 310 314 318 321 323 325 326 325 325 326 327 327 327 328 328 328 327 327 327 327 327 328 328 328 329 328 327 327 328 327 327 327 328 329 328 329 329 327 326 326 326 326 325 326 326 326 325 324 323 322 322 321 321
299 299 299 298 298 298 299 299 299 299 299 300 300 300 300 300 300 301 301 301 302 302 302 303 303 304 304 304 304 304 305 306 308 310 315 318 321 324 325 325 325 325 326 326 327 326 326 326 326 327 327 326 327 327 327 327 328 327 326 326 327 327 326 327 327 327 327 327 326 325 325 325 325 325 325 326 325 324 322 320 319 318 317 316 316
299 299 298 298 298 299 299 299 299 299 299 300 300 300 301 300 300 300 300 300 301 301 302 302 303 303 303 304 304 304 304 305 306 308 310 313 315 319 323 324 325 325 324 325 325 324 324 324 324 325 325 325 326 327 326 326 327 326 326 326 326 326 326 326 325 324 324 324 324 324 324 324 325 325 325 325 325 323 321 318 316 315 314 314 315
299 299 299 299 299 299 299 299 299 299 299 300 300 300 301 300 300 299 299 299 299 300 301 302 302 303 303 303 303 304 304 304 304 305 307 307 308 311 313 316 319 322 322 321 321 321 321 321 322 322 322 323 325 326 325 325 326 326 325 325 325 324 324 323 322 322 322 322 322 323 323 324 324 325 325 325 324 323 320 317 315 314 314 315 315
300 300 300 299 300 299 299 299 299 299 299 300 300 300 301 300 300 300 299 298 298 298 299 301 302 302 303 303 303 303 303 303 302 303 303 304 304 304 306 307 310 313 315 315 315 316 316 316 317 317 318 321 323 323 323 324 324 324 324 323 322 322 320 320 320 320 320 321 321 322 323 323 323 323 323 322 321 321 318 315 314 313 313 313 312
300 300 300 300 300 300 299 300 300 299 299 299 300 300 300 300 300 300 299 298 297 297 298 300 302 302 303 304 303 303 303 303 302 302 302 302 302 302 302 303 303 303 305 307 309 310 310 310 310 311 314 318 320 320 320 321 321 321 322 322 320 319 318 317 318 318 318 319 319 319 320 320 320 320 319 317 316 317 316 315 314 313 312 310 309
300 300 300 300 300 300 300 300 300 300 299 299 299 300 300 299 299 300 299 298 297 296 297 300 302 303 303 304 304 303 303 303 302 302 301 301 302 301 301 301 301 300 300 301 303 305 306 306 307 308 310 313 316 316 317 318 317 318 319 320 319 318 316 314 314 313 313 314 315 316 317 318 318 317 315 313 313 314 314 314 313 312 311 308 306
300 300 300 300 299 300 300 300 300 300 300 299 299 299 299 298 299 299 299 298 297 296 296 299 303 304 303 303 304 303 303 303 303 302 302 301 301 301 301 301 300 300 300 300 301 302 303 304 305 306 307 308 309 311 312 313 314 315 316 317 317 317 315 312 310 309 309 309 310 313 315 316 317 316 314 313 313 313 314 313 312 312 310 305 303
300 300 299 299 299 299 299 299 300 300 299 299 299 298 298 298 298 298 299 299 298 297 296 298 301 303 303 302 303 303 303 303 303 302 302 302 301 301 302 302 301 300 300 300 300 300 300 301 302 304 304 304 305 306 307 309 311 312 313 314 314 314 313 311 308 307 306 306 305 306 308 310 313 315 314 313 313 312 313 312 311 310 307 303 302
300 299 299 299 299 299 299 299 299 299 299 299 299 298 298 298 298 298 299 299 299 298 297 297 299 301 302 302 302 303 303 302 302 302 302 302 302 302 301 302 302 302 301 300 299 299 299 300 300 301 302 302 303 304 304 305 307 308 308 310 310 309 308 309 307 305 304 303 302 301 301 302 305 307 307 307 307 307 307 307 306 306 304 303 303
300 299 300 300 300 300 299 298 299 299 299 299 299 298 298 298 298 298 299 299 299 299 298 297 297 299 301 301 302 302 302 302 302 302 302 301 301 301 301 301 302 302 302 301 300 299 298 299 299 300 300 301 301 302 302 303 304 304 305 306 306 305 305 306 306 303 301 300 300 300 300 300 301 302 302 302 303 303 304 304 304 304 304 304 304
300 300 300 299 300 299 298 298 298 299 299 299 299 299 298 298 298 298 299 299 299 299 299 297 296 297 299 300 301 301 302 301 301 301 301 301 300 300 300 300 300 300 300 300 300 299 299 298 298 299 300 301 301 301 301 301 302 303 304 304 304 304 304 305 304 302 301 301 301 301 302 302 302 303 303 303 303 303 304 304 304 304 304 303 303
300 298 297 298 298 298 298 297 297 298 299 299 299 299 299 298 298 298 298 298 299 299 299 297 296 296 297 299 300 301 301 301 301 300 300 300 300 300 300 300 300 299 299 299 299 299 298 297 298 298 298 299 300 300 301 301 301 301 301 302 303 303 304 304 304 302 302 302 302 302 302 303 304 304 304 304 304 304 304 304 303 303 303 302 302
297 295 295 297 298 298 297 297 297 297 298 299 299 299 299 298 298 298 298 298 298 299 299 298 297 296 296 297 299 300 300 300 300 300 300 299 299 299 298 298 298 298 298 298 297 297 297 297 297 297 297 297 298 298 298 299 300 300 300 301 301 301 302 303 303 302 302 302 302 302 303 303 303 303 303 303 303 303 303 302 302 302 302 301 301
295 294 295 296 297 297 297 297 297 297 297 298 299 298 299 299 298 298 298 298 298 298 299 298 297 297 296 296 297 298 299 299 299 300 300 299 299 299 298 298 298 297 297 297 296 297 297 297 297 297 297 297 297 297 297 297 298 298 299 300 300 301 302 302 302 301 301 302 302 302 302 302 302 302 302 301 301 301 301 301 301 301 300 300 299
294 295 295 295 296 297 297 297 297 297 297 298 299 299 299 299 298 298 298 298 298 298 298 298 298 298 297 296 296 296 297 297 297 298 298 298 298 299 299 299 298 298 298 297 296 296 295 295 295 296 296 297 296 296 296 296 297 297 298 299 300 301 302 302 301 301 301 301 301 301 301 301 301 301 300 300 300 300 299 299 299 299 298 298 298
294 294 295 295 296 297 297 296 297 297 297 298 299 299 299 299 298 298 298 298 297 297 297 298 298 298 298 297 296 296 296 296 296 296 296 296 296 297 297 298 298 298 298 298 298 297 296 296 295 295 295 296 295 295 295 296 296 296 297 297 298 299 300 301 301 301 301 301 300 300 300 300 300 299 299 298 298 298 297 297 297 297 296 296 296
294 294 294 295 295 296 296 296 297 297 297 298 298 299 299 299 299 298 298 298 297 297 297 297 297 298 298 297 297 296 296 296 296 296 296 296 296 296 296 296 296 296 297 297 298 297 297 297 297 297 296 296 296 295 295 295 296 296 297 297 297 297 298 299 300 301 301 300 300 299 299 299 298 298 298 297 297 296 296 296 295 295 295 295 295
294 294 294 295 295 295 295 296 297 297 297 297 298 298 299 299 299 299 298 298 297 297 297 297 297 297 297 297 297 296 296 296 296 296 296 296 296 296 296 296 296 296 296 296 297 297 297 297 297 297 297 297 296 296 296 296 296 297 298 298 298 298 298 299 300 300 300 299 299 298 298 297 297 297 297 296 296 296 295 295 295 295 295 294 294
Wind_Speed
2 4 10 13 18 18 17 17 17 20 23 24 24 25 25 22 20 22 23 23 22 22 21 21 23 23 23 24 25 25 26 25 24 25 25 25 25 25 24 24 25 24 23 23 22 23 24 24 21 20 21 22 23 24 24 22 20 20 19 19 19 17 15 15 17 20 19 14 10 10 11 12 11 12 14 13 12 11 9 8 7 6 4 3 3
1 4 8 11 14 13 12 14 15 17 20 20 20 20 20 18 17 17 18 18 19 19 20 21 23 24 24 24 25 24 24 24 23 24 25 25 26 26 25 25 25 25 25 25 23 23 25 25 23 21 22 23 23 24 24 21 19 21 22 19 16 16 17 18 21 20 15 12 10 9 8 7 5 8 12 12 11 11 9 8 8 7 5 4 5
2 3 5 8 9 8 9 9 11 13 14 14 14 13 13 12 11 12 13 14 15 17 18 20 22 24 24 23 22 21 21 22 22 23 24 24 25 27 27 26 26 27 27 27 24 25 27 26 23 22 23 24 23 24 24 21 21 24 25 21 17 16 16 19 22 18 15 14 10 6 4 4 4 4 8 10 10 10 10 9 8 7 6 5 5
4 3 2 2 3 3 4 5 6 9 9 10 10 11 11 11 13 14 13 14 14 15 16 17 18 20 20 20 18 18 17 18 19 20 21 22 23 26 27 26 27 29 29 28 26 26 28 26 23 23 24 24 23 24 24 22 23 26 26 24 22 20 17 19 21 18 19 18 9 3 3 3 2 3 5 7 8 9 8 9 8 7 7 7 7
4 4 5 6 6 5 5 7 8 8 9 11 12 14 16 17 18 19 17 16 15 14 15 16 16 17 16 15 14 14 13 13 16 18 18 20 23 24 26 28 29 29 29 28 27 27 28 25 24 25 26 24 24 25 25 23 25 28 27 25 26 23 20 21 20 17 20 20 12 6 4 1 2 5 6 5 7 8 8 9 9 7 8 8 8
6 6 6 7 7 7 8 9 11 11 9 8 8 7 9 12 15 16 16 16 16 16 16 17 17 16 15 14 13 12 13 13 15 18 18 20 23 24 26 27 28 27 27 26 25 26 27 25 24 26 26 25 24 24 24 25 27 29 28 27 27 25 22 23 22 19 20 19 14 11 6 3 6 9 6 3 5 7 8 9 9 8 8 9 10
10 10 9 9 9 9 9 10 13 15 12 8 8 8 8 8 9 12 15 18 19 19 19 19 19 18 15 15 12 10 11 11 13 15 18 20 22 24 27 26 25 25 24 24 24 25 26 24 23 26 26 25 25 25 26 28 30 29 28 28 27 26 25 25 25 23 22 19 15 13 8 4 10 13 8 4 4 6 7 9 9 9 9 9 10
12 12 12 12 14 14 13 14 15 14 11 8 6 9 10 9 7 10 16 18 18 20 20 19 20 19 14 9 7 8 7 9 14 16 18 20 22 25 29 27 25 25 25 25 26 26 26 23 23 25 26 26 28 28 28 29 30 28 28 29 28 28 26 26 27 26 25 22 18 15 9 5 11 16 13 9 5 4 5 6 8 9 10 10 11
13 12 12 14 17 18 14 14 14 12 12 9 3 5 9 10 10 11 15 18 18 21 23 21 18 16 12 9 11 17 17 15 17 20 19 18 21 24 26 26 25 25 26 27 28 27 26 24 22 24 27 28 29 29 28 28 30 29 29 30 29 29 27 26 28 29 29 26 22 18 10 7 12 13 14 12 7 5 5 5 8 9 9 11 11
12 11 13 16 18 19 17 17 18 17 13 9 5 4 5 5 6 9 12 14 15 18 21 22 18 13 14 17 21 26 24 19 18 20 19 18 20 22 21 23 24 25 25 26 27 25 25 24 23 24 27 27 28 28 27 28 30 29 28 30 30 29 28 27 26 27 29 28 25 21 14 12 13 9 12 15 9 5 4 6 11 9 7 10 12
10 10 13 17 19 21 23 22 22 22 18 14 11 10 10 11 12 10 9 9 10 11 14 18 17 16 21 26 27 26 23 22 22 21 19 19 21 21 20 22 24 27 27 26 25 25 24 24 23 24 26 26 27 27 27 29 30 29 28 29 29 29 29 28 26 26 28 27 24 23 19 16 15 12 17 19 13 8 5 6 10 9 8 11 12
11 11 12 16 18 20 23 22 22 23 23 21 19 18 16 14 14 15 15 14 13 13 14 15 15 17 24 27 26 25 23 24 24 22 21 21 21 20 20 22 24 27 28 25 25 25 25 23 22 24 25 26 27 27 28 31 30 29 29 29 29 29 29 28 27 26 27 27 25 23 21 19 17 17 20 22 19 15 11 8 10 11 8 9 13
11 11 11 13 14 16 19 20 21 22 23 24 24 22 20 18 16 15 15 16 15 15 15 14 15 18 24 26 25 25 25 26 26 24 23 23 22 21 22 23 24 25 27 26 26 26 26 24 24 26 25 25 26 26 28 30 28 27 29 29 29 29 29 29 28 26 25 25 25 23 21 19 18 17 19 22 20 17 15 11 10 10 7 7 11
11 11 10 11 14 16 16 17 19 20 22 24 25 24 23 21 20 18 16 16 15 13 14 14 15 19 24 26 25 25 27 28 28 26 25 24 24 24 24 25 26 26 26 27 26 26 27 26 25 25 24 24 25 25 27 28 27 26 27 29 29 28 29 29 28 26 24 23 24 24 22 19 18 18 19 21 21 19 18 17 13 7 6 8 9
11 11 11 12 15 16 16 18 19 20 22 23 24 25 24 23 23 21 18 17 16 14 15 16 16 18 22 25 25 27 29 29 28 27 27 26 25 25 25 25 26 27 25 24 24 25 26 25 25 24 23 23 23 23 27 27 25 25 26 27 29 28 28 28 27 25 23 22 23 24 24 20 17 18 19 20 22 22 21 22 20 10 4 4 4
11 10 11 13 16 16 16 17 18 21 23 24 24 24 24 23 22 22 19 17 17 15 15 18 19 19 19 22 24 25 26 26 26 27 27 25 24 26 26 25 26 26 24 23 23 23 24 23 23 23 21 21 21 23 27 27 25 25 24 26 28 27 27 27 26 25 23 22 22 23 24 23 18 17 19 19 21 23 21 23 25 19 10 3 1
11 9 9 12 15 15 15 15 17 20 22 23 23 23 22 22 21 21 20 18 17 16 14 17 20 21 20 20 22 23 22 23 24 24 25 24 23 24 25 25 25 24 24 24 23 22 22 21 22 23 21 20 22 24 26 26 25 24 23 25 27 26 25 26 25 25 24 22 21 22 24 24 21 18 18 18 19 21 22 23 25 24 18 8 3
10 10 10 12 14 16 17 17 18 19 20 20 22 22 23 22 22 22 21 20 19 18 15 15 18 21 21 20 21 22 22 22 23 22 24 24 23 23 24 24 24 24 25 25 23 22 21 19 22 24 22 22 24 25 25 25 24 23 23 24 25 24 24 25 24 24 24 22 21 22 23 24 23 20 18 18 18 20 22 23 23 25 23 16 10
9 9 9 11 14 17 18 19 20 20 20 20 21 22 24 26 25 24 22 21 21 19 17 15 15 17 20 20 21 23 23 23 22 22 24 23 22 24 25 24 23 24 24 24 22 20 20 20 23 24 23 23 25 25 24 23 22 22 24 25 24 24 24 24 24 24 23 22 21 22 23 24 23 21 18 18 19 19 21 22 22 24 24 22 18
8 8 8 12 16 18 19 19 20 20 20 21 22 22 24 26 28 27 25 24 22 21 19 17 15 15 16 17 19 22 23 22 20 20 23 23 23 26 26 24 23 23 25 25 22 20 21 22 24 25 24 23 24 24 23 22 22 23 24 25 24 23 24 23 24 23 21 21 21 22 23 24 23 22 21 19 19 19 21 21 22 23 24 22 20
8 8 9 12 15 18 19 19 20 21 22 23 24 24 25 27 29 28 27 26 26 24 21 18 16 15 15 15 16 17 19 19 19 20 22 23 25 27 26 24 22 22 25 26 24 21 21 22 23 24 23 22 23 24 23 22 23 24 24 23 23 23 23 23 22 21 20 20 20 20 22 24 24 23 22 21 20 20 21 22 22 23 25 23 20
9 9 10 13 15 17 18 19 20 22 24 25 25 26 27 29 29 29 29 28 28 27 25 21 17 16 17 16 14 13 13 15 16 19 21 22 25 28 26 23 23 23 25 26 25 23 22 22 22 22 21 20 22 23 23 22 22 22 23 22 22 22 22 22 21 21 20 20 19 21 23 24 24 23 22 20 20 21 21 22 23 24 25 25 22
9 10 11 14 15 16 17 18 19 21 23 25 25 26 27 28 28 29 30 30 29 28 27 25 20 17 17 17 15 13 11 11 12 15 18 21 24 26 25 24 24 24 25 26 25 24 23 22 22 21 20 19 19 20 21 21 21 22 22 22 21 21 21 21 21 20 21 21 21 22 23 23 23 22 21 19 19 20 21 22 23 24 25 25 24
10 10 12 14 16 17 17 18 18 20 22 23 24 25 26 27 27 28 28 29 30 29 28 26 23 20 17 17 16 15 13 12 12 12 16 19 22 23 24 24 25 24 24 25 25 24 23 22 23 22 21 18 18 18 19 20 21 22 23 22 20 21 21 20 20 20 21 22 22 22 22 21 21 20 19 18 18 19 21 22 22 24 25 25 25
10 10 11 13 14 16 17 17 18 20 22 22 23 24 24 25 27 27 28 28 29 29 28 27 25 22 19 18 18 17 16 15 14 14 15 18 22 23 24 24 24 23 24 25 25 24 22 23 23 22 21 19 18 17 18 20 21 22 23 22 21 23 24 21 20 22 22 22 22 21 21 20 19 19 19 18 18 19 20 21 22 22 23 25 25
9 9 9 10 11 13 16 17 18 20 21 22 23 25 26 26 26 27 28 28 28 28 28 27 26 25 23 22 21 20 18 17 16 17 16 18 22 23 24 24 22 20 22 23 22 22 22 22 23 22 21 20 18 17 18 20 20 21 22 22 23 24 24 22 22 23 23 22 22 21 20 19 20 20 20 20 20 20 20 21 22 22 22 24 24
8 8 8 9 10 13 16 17 19 20 21 22 23 25 26 27 28 28 28 28 28 27 27 26 26 26 25 24 23 21 20 18 17 18 17 18 20 22 23 23 22 20 20 20 20 21 21 20 21 22 20 19 18 18 20 21 20 20 21 22 22 23 23 23 22 22 21 21 22 22 21 20 20 20 21 21 21 21 22 22 22 22 21 22 23
6 7 7 8 9 12 16 18 19 21 22 22 23 24 26 27 29 30 29 28 28 27 27 26 25 25 26 26 24 22 20 19 18 17 18 18 19 22 22 22 22 21 20 20 21 22 21 20 21 22 21 19 19 20 23 23 21 19 20 20 21 21 21 21 20 19 19 20 20 20 19 19 19 19 19 20 21 23 23 23 22 21 21 22 23
7 7 7 7 8 12 16 18 20 21 22 23 23 24 25 27 28 29 30 29 28 26 27 27 26 25 25 26 25 23 20 19 18 17 18 19 20 22 22 22 22 22 22 21 21 21 22 22 23 23 22 21 21 22 25 25 22 20 20 20 20 20 19 19 19 18 18 17 17 17 17 17 17 18 17 18 20 21 21 22 22 21 21 22 23
8 8 7 8 10 14 17 19 20 22 22 22 23 23 24 25 27 29 29 29 29 28 28 28 28 27 26 26 26 25 23 20 18 17 17 20 21 21 22 23 23 23 23 22 20 22 23 24 24 24 24 22 21 23 25 24 22 22 21 20 20 19 18 18 18 18 17 17 17 16 16 16 16 16 16 17 16 15 16 17 16 18 21 22 22
7 7 8 9 12 15 17 19 21 22 23 23 23 24 25 26 28 29 29 29 30 30 30 29 29 29 28 27 27 27 25 22 20 18 17 19 22 22 21 22 23 23 24 22 21 22 24 25 25 24 24 23 23 24 24 23 23 23 22 21 20 19 18 18 17 17 17 17 17 16 15 15 15 15 15 15 13 11 13 13 12 14 18 20 20
7 7 8 9 11 14 17 19 21 22 24 24 25 25 26 27 28 29 30 31 31 31 31 31 31 31 30 29 28 28 27 25 21 19 17 17 20 23 22 22 23 24 24 23 22 22 24 24 24 24 24 25 25 24 23 23 23 23 22 22 20 18 18 18 17 17 16 17 17 16 15 14 14 14 13 12 10 9 10 11 12 14 17 19 19
6 7 8 9 12 15 17 20 22 23 25 26 26 27 27 27 28 30 31 33 33 32 32 32 33 33 33 31 29 29 29 27 24 20 17 17 19 23 24 23 24 25 25 25 24 24 25 25 25 24 25 26 25 23 23 23 23 22 21 21 20 19 17 17 17 17 17 17 17 16 15 14 13 12 11 11 10 10 10 11 11 12 13 14 17
7 7 9 12 15 18 20 22 23 24 25 26 27 27 27 28 29 30 31 33 33 34 34 34 34 34 34 33 31 30 30 29 27 23 17 15 15 21 27 26 25 26 27 27 26 26 27 27 27 26 26 25 24 23 22 23 22 21 20 20 20 19 18 17 17 17 17 16 16 16 15 14 13 12 12 12 13 13 13 12 11 9 7 6 7
6 7 11 14 17 18 21 22 23 24 24 25 26 27 27 28 29 30 30 31 32 33 34 34 35 35 35 34 32 31 30 30 29 26 20 17 13 9 18 23 25 26 27 28 28 28 28 28 27 26 26 26 24 23 23 23 22 21 20 20 20 19 18 18 17 17 17 16 16 16 16 15 14 13 13 13 14 15 14 13 12 12 12 11 9
7 8 11 15 17 18 20 21 22 23 24 24 25 26 26 28 29 30 31 31 31 32 33 34 35 35 35 34 33 31 30 30 30 28 25 23 21 14 3 8 17 22 24 24 25 25 25 25 25 25 25 25 23 23 23 22 22 22 20 20 19 19 19 18 17 17 17 17 17 17 17 16 15 15 14 14 14 15 15 15 15 15 15 14 13
11 13 15 18 19 19 19 20 22 23 23 24 24 25 26 27 29 31 31 32 32 32 32 33 33 34 34 34 33 31 30 29 29 29 28 27 25 22 17 8 4 10 16 19 20 21 21 21 21 22 23 24 23 22 23 22 22 23 22 21 21 20 19 18 17 16 16 17 17 17 17 17 16 15 15 15 15 16 17 17 18 17 16 14 15
14 16 18 20 20 19 20 20 21 22 23 23 23 25 26 27 28 30 30 31 32 31 31 31 31 32 34 34 33 32 30 30 29 28 27 28 28 27 24 19 14 10 7 10 15 17 17 16 16 17 18 21 22 21 22 23 23 23 24 23 23 22 20 19 18 17 17 17 17 16 15 16 16 16 16 17 17 16 18 19 19 18 17 16 17
15 16 17 18 19 20 21 21 21 21 22 23 23 25 26 27 27 29 29 30 30 30 30 29 28 29 31 33 34 33 31 31 30 28 27 27 28 29 28 26 24 21 17 12 12 15 16 15 14 14 14 16 19 20 21 23 24 24 24 24 24 23 22 21 21 21 20 19 18 17 16 15 16 17 17 17 17 16 17 19 19 19 19 19 18
16 17 17 18 19 20 20 20 21 21 22 23 23 24 25 26 26 28 29 28 29 29 29 27 25 26 27 30 32 33 32 31 31 31 30 28 28 29 30 31 31 28 25 22 19 19 20 19 17 16 15 15 16 17 18 20 22 23 23 24 25 25 24 24 23 23 22 22 21 20 19 17 17 18 18 18 17 16 17 18 18 18 20 21 19
15 16 17 18 19 19 19 18 19 21 22 23 23 24 24 25 25 26 27 26 26 28 29 27 25 24 24 26 29 31 32 31 31 33 34 33 31 31 32 34 34 34 31 28 26 24 25 26 25 22 20 19 18 17 15 15 19 21 22 24 24 25 26 26 25 24 23 23 22 22 22 20 20 20 21 21 20 18 17 17 16 16 19 20 20
13 14 16 18 19 20 20 18 17 19 21 22 24 25 24 24 24 24 24 24 24 27 29 28 26 24 23 24 25 27 29 30 30 32 34 35 34 33 33 33 35 36 35 34 30 26 25 30 32 29 27 26 24 21 18 15 15 18 20 22 24 25 26 26 26 25 24 23 23 22 22 20 20 21 21 21 20 19 17 17 16 16 18 19 20
13 14 16 18 19 20 20 17 16 17 19 21 23 24 24 25 24 23 23 23 23 24 27 29 27 25 23 22 22 23 24 26 27 29 31 33 33 34 34 33 33 34 34 34 34 30 26 29 33 32 31 30 28 26 23 20 18 18 19 20 22 23 23 25 26 26 25 24 23 22 21 20 20 20 19 18 18 18 18 18 18 18 18 18 18
14 15 16 17 18 19 17 15 14 15 16 18 21 22 24 24 23 21 23 24 23 23 25 27 28 26 23 22 21 20 21 22 22 24 26 28 29 30 31 32 31 32 31 30 30 30 29 28 30 30 30 30 29 27 25 23 21 20 20 19 19 19 19 21 24 25 24 23 23 22 20 19 18 18 17 17 18 19 21 21 20 19 18 17 18
15 15 15 15 14 14 14 13 13 13 14 16 18 21 22 23 21 21 23 24 24 23 23 24 26 26 24 23 21 20 20 19 19 20 22 24 25 26 27 27 27 28 29 27 27 28 28 29 29 29 30 30 28 26 25 24 22 21 20 19 18 17 16 18 20 22 22 22 22 21 19 18 17 17 17 19 21 21 22 22 21 20 18 17 16
16 16 15 13 12 13 14 14 14 13 12 14 17 19 20 21 20 20 22 23 23 23 22 21 23 25 24 23 22 22 21 19 18 18 19 19 21 22 24 24 23 23 23 24 24 25 26 27 28 28 28 28 27 26 25 24 22 20 20 19 18 18 16 17 20 22 22 23 23 21 20 21 21 19 19 21 23 21 20 20 20 19 17 16 15
14 14 14 14 15 15 16 17 17 15 12 12 15 17 18 18 18 18 20 21 22 23 23 20 20 22 23 22 22 22 23 23 21 20 19 18 17 17 18 19 19 19 19 19 20 21 22 23 23 23 23 23 23 23 23 22 21 19 18 16 16 16 16 17 20 22 22 22 22 21 21 21 21 20 20 21 22 21 20 20 20 18 16 15 14
12 12 14 15 16 16 17 18 19 17 12 11 13 15 16 17 17 17 18 19 20 21 22 21 18 18 20 20 20 20 21 23 24 24 23 22 20 18 17 16 15 14 14 15 15 16 16 16 16 17 18 19 19 19 19 17 17 16 15 13 12 14 16 18 21 22 22 22 21 21 20 20 20 21 21 21 21 21 20 20 19 18 16 15 14
10 11 13 14 15 16 17 18 19 17 14 11 11 13 15 16 16 16 17 17 18 18 19 19 18 17 16 16 17 17 18 19 21 23 24 23 22 21 20 18 16 13 12 12 12 11 11 10 11 12 13 14 14 14 14 13 12 12 12 11 11 12 13 15 17 17 17 19 20 20 20 20 20 21 21 20 20 20 20 20 19 17 16 15 14
8 10 12 13 14 15 17 18 18 18 16 12 10 11 13 14 15 15 16 16 16 16 16 17 17 16 15 13 13 14 15 16 17 19 21 21 21 20 19 19 18 16 14 13 12 10 8 7 7 8 8 8 8 8 8 7 7 7 7 7 7 7 8 11 13 14 15 18 20 21 20 20 20 20 20 20 20 19 19 19 17 16 15 14 14
7 9 12 13 14 14 15 16 16 16 16 15 12 12 12 13 14 14 14 14 15 15 15 15 15 15 15 13 11 11 12 13 14 15 17 18 18 18 18 17 17 16 15 15 13 11 9 7 6 5 5 5 4 4 4 3 3 3 3 3 6 9 11 14 16 17 18 20 21 21 21 20 19 19 18 18 17 16 17 17 16 16 16 15 15
Wind_Direction
295 211 213 213 217 219 219 222 223 225 227 229 229 228 229 230 230 230 230 229 223 218 214 213 213 213 215 215 214 216 217 218 219 220 221 221 223 226 226 226 226 225 227 226 222 221 222 222 225 228 223 217 215 211 203 199 207 217 213 207 199 183 172 173 172 165 151 145 151 140 146 169 178 176 174 171 169 172 174 172 171 170 174 163 129
321 196 206 212 221 224 223 226 226 230 233 235 237 237 237 238 239 240 240 239 231 223 218 217 220 219 219 219 216 217 218 219 220 223 223 221 223 228 230 230 227 224 226 227 225 225 225 224 226 229 223 218 217 213 205 197 200 210 204 194 194 183 170 171 171 164 151 146 147 134 133 147 156 173 181 182 183 187 182 176 175 175 175 159 133
258 226 211 210 222 226 228 237 240 244 249 253 257 261 262 264 270 270 266 260 248 236 227 222 225 226 226 226 223 221 223 225 226 229 229 227 226 228 232 233 230 227 227 226 224 225 227 225 224 225 220 216 215 210 203 196 196 203 201 194 187 178 172 175 176 172 162 151 144 141 141 130 112 148 181 188 197 201 189 179 182 182 182 169 146
262 268 268 249 258 250 259 290 295 290 301 314 316 319 315 308 311 312 304 292 275 258 245 236 233 234 233 234 234 231 232 233 233 235 236 234 232 232 235 236 232 230 229 227 223 224 227 226 223 221 217 214 212 207 201 196 196 198 199 196 184 169 165 176 181 182 175 162 144 119 121 134 155 158 170 184 199 205 196 191 196 195 192 184 170
334 343 356 7 13 10 1 5 2 345 338 345 352 355 351 344 338 334 326 315 301 284 268 257 251 249 245 243 243 239 238 235 231 233 234 236 240 240 240 238 235 231 229 225 221 222 227 226 222 217 213 210 208 207 203 197 197 198 198 195 187 178 171 176 182 188 187 177 161 144 132 158 204 155 155 180 204 209 206 203 209 210 200 191 189
23 17 17 22 29 30 16 12 22 25 14 354 343 333 325 326 326 324 319 307 294 283 275 268 259 256 252 245 239 233 233 230 226 227 227 232 241 246 244 239 235 231 225 222 221 222 224 225 221 217 211 207 208 210 207 201 197 199 199 195 192 190 180 176 182 188 191 187 177 172 173 185 170 151 147 181 201 212 215 208 212 215 202 192 197
36 34 31 32 39 46 40 39 47 48 34 350 303 276 265 271 287 298 296 285 278 277 274 267 259 256 254 249 247 244 241 244 243 238 234 234 239 246 246 240 235 232 224 219 220 220 220 221 221 219 213 207 209 210 209 205 201 200 200 197 195 193 185 179 182 185 189 195 194 185 177 177 175 169 167 162 175 207 215 205 206 211 205 197 197
36 36 33 33 35 41 52 59 58 54 41 5 304 271 264 253 254 285 289 281 277 276 271 264 258 254 253 258 279 286 278 272 264 253 246 241 239 244 245 239 234 231 223 218 218 217 216 217 220 222 216 209 208 208 209 209 204 200 200 199 197 196 194 190 186 184 188 195 195 188 184 188 186 183 180 166 149 177 194 200 204 206 209 204 198
35 33 33 33 30 32 44 53 44 41 41 29 352 263 265 251 238 254 272 275 271 267 263 260 258 249 241 247 264 262 256 256 256 252 250 246 240 242 241 237 232 228 223 221 218 216 215 215 219 223 218 210 209 209 210 211 206 201 199 199 199 199 202 201 194 191 193 195 193 191 194 185 181 184 181 172 157 161 173 192 198 197 202 206 203
32 30 31 30 27 26 33 40 33 30 31 16 347 324 326 315 280 255 254 260 263 264 260 253 248 238 234 243 252 253 248 247 250 249 250 249 241 237 234 233 234 230 225 222 219 216 214 213 218 223 217 212 213 214 214 213 208 203 203 203 203 203 204 204 203 201 200 199 195 193 188 173 168 172 180 178 171 168 177 188 191 188 185 196 203
25 28 29 26 23 21 25 30 26 23 21 13 3 356 355 349 336 321 301 288 280 274 261 245 236 231 238 244 247 247 244 244 246 244 247 249 241 234 229 230 232 229 225 223 220 218 216 213 217 222 220 216 220 222 220 217 210 205 206 206 206 207 206 205 206 207 204 201 200 199 196 187 181 184 186 183 176 168 166 177 185 183 177 189 199
23 24 21 18 18 17 19 21 19 18 16 11 9 3 357 350 336 329 325 317 302 283 268 248 231 230 241 246 247 245 243 244 244 241 245 249 242 233 228 225 223 221 220 218 217 217 217 216 217 221 222 222 224 224 223 220 212 206 206 206 207 208 209 207 207 208 207 203 201 204 207 207 204 202 196 191 188 183 174 164 172 172 169 187 195
28 25 18 13 11 10 12 14 13 13 11 8 7 4 1 356 344 331 321 314 304 290 281 264 244 242 246 246 248 248 246 243 241 239 240 244 243 238 231 223 220 219 217 217 217 214 215 218 220 221 221 223 224 222 224 223 214 207 206 207 209 209 210 210 209 211 211 207 204 204 209 214 216 218 209 200 196 189 176 162 166 172 164 172 190
31 27 22 16 9 6 6 8 9 8 8 8 7 5 1 358 354 345 329 320 314 307 300 283 261 253 248 244 246 249 249 243 237 236 235 235 239 239 235 228 227 227 223 223 222 213 212 218 223 223 221 222 222 220 225 225 217 212 209 208 210 211 212 212 213 215 215 212 209 206 208 214 219 223 218 208 200 193 181 167 159 160 158 158 179
28 24 23 17 11 7 3 4 5 4 5 6 6 6 4 1 1 358 349 337 328 315 299 289 278 263 250 246 247 248 247 242 236 238 238 236 239 240 237 231 231 233 230 226 224 214 211 217 225 225 222 224 223 220 224 224 217 213 212 213 213 211 212 213 214 217 218 216 213 210 210 214 221 224 221 215 208 204 197 182 168 153 138 150 170
24 22 20 14 10 8 4 1 1 0 2 4 4 4 3 2 3 5 3 352 341 327 304 293 290 281 266 258 256 253 250 243 237 238 241 242 244 243 241 237 235 235 231 224 220 216 216 220 226 227 223 224 223 220 221 222 218 215 214 216 216 212 212 214 215 217 219 220 219 217 216 217 225 229 225 221 215 212 209 197 183 173 162 153 171
20 19 17 11 6 4 2 2 1 360 359 359 360 2 2 2 4 7 8 4 355 345 324 306 297 293 289 281 273 266 261 254 245 240 241 244 247 246 245 243 238 233 229 225 219 216 219 221 225 226 221 219 223 221 220 221 219 216 213 215 215 213 212 214 216 218 219 220 220 222 223 223 227 232 228 223 219 216 213 205 199 194 184 166 152
14 15 14 7 2 0 0 2 2 2 359 355 356 0 3 5 7 6 5 3 360 356 344 323 308 299 295 290 283 276 269 263 256 249 246 244 245 245 241 240 237 231 227 225 218 214 216 218 223 227 222 218 222 221 219 219 219 216 215 215 214 213 212 213 217 220 220 219 219 222 227 227 227 231 229 222 219 218 215 209 209 210 203 188 173
9 10 8 2 1 359 359 2 1 1 1 357 357 0 4 8 9 7 4 2 1 1 355 341 328 314 300 291 288 285 279 273 267 261 254 245 241 239 236 236 237 232 227 222 216 213 214 218 224 227 223 219 220 218 215 216 218 216 215 213 212 213 213 214 218 221 221 220 218 221 226 227 227 228 226 222 220 220 218 215 214 216 215 208 196
6 5 2 0 2 359 359 2 360 359 1 1 2 2 3 5 7 7 6 5 4 4 1 352 345 336 316 300 293 288 284 282 278 270 260 251 245 240 238 241 240 232 226 221 216 214 217 220 223 223 220 218 219 218 215 216 217 217 217 214 214 215 217 219 220 220 220 220 219 221 225 226 226 225 222 220 220 221 220 218 219 218 216 215 209
2 2 0 1 2 360 359 1 1 1 3 4 5 4 3 3 4 4 3 3 3 3 3 357 350 345 330 311 299 292 287 286 282 273 265 258 252 246 241 242 241 230 223 220 217 219 222 222 221 220 218 217 218 218 217 218 218 218 219 220 220 220 220 222 222 220 220 221 222 223 225 225 224 223 220 219 220 222 221 219 219 219 216 215 213
3 2 2 3 3 360 357 359 2 5 4 5 5 4 4 4 3 2 1 1 1 1 360 356 351 345 334 319 304 293 291 290 283 275 270 261 253 248 243 241 240 229 221 220 220 222 223 220 218 220 219 216 216 216 216 219 219 219 220 220 221 221 220 221 223 224 224 224 224 224 225 224 221 219 219 220 222 221 220 218 216 217 219 218 216
3 4 7 7 6 2 360 0 4 7 6 5 6 4 3 3 2 2 1 1 0 360 359 356 352 344 335 326 312 299 298 294 282 274 267 257 248 246 245 244 243 234 223 222 225 227 225 219 216 221 220 213 212 215 216 218 220 220 219 216 216 219 221 222 224 225 225 225 223 222 224 223 218 216 217 219 222 220 220 219 216 217 220 221 220
2 5 9 9 8 8 7 6 5 7 7 5 5 5 4 4 3 2 2 2 2 2 2 1 356 348 340 335 325 318 315 305 291 278 265 254 248 245 243 243 242 237 227 224 227 229 226 221 219 221 219 214 213 217 219 221 222 222 220 219 219 221 224 224 223 224 224 223 221 220 221 222 218 216 215 217 218 219 220 220 218 219 221 222 225
2 5 9 8 8 9 9 9 7 7 6 5 5 5 4 5 5 4 3 3 5 5 5 5 2 355 347 340 335 332 329 318 303 291 275 258 249 245 241 238 235 234 231 228 226 227 226 225 223 222 221 219 217 222 226 225 224 221 220 220 218 217 221 222 221 223 223 221 220 219 218 218 218 217 217 219 218 218 219 220 220 221 221 224 227
3 6 5 2 4 6 8 10 9 8 7 6 6 5 5 6 7 8 7 6 7 8 7 7 6 2 354 344 338 336 332 322 305 295 284 261 245 240 239 236 231 229 230 227 223 224 224 225 226 224 223 221 218 222 228 227 224 221 220 220 216 214 218 220 219 221 223 223 222 222 222 221 221 221 221 222 221 219 219 220 221 221 221 223 225
5 3 358 356 358 2 6 8 9 10 10 9 9 8 7 6 7 9 10 9 9 9 9 9 7 5 1 353 345 336 329 320 306 294 284 266 246 236 235 234 229 225 222 219 220 221 219 222 229 226 222 221 219 221 225 225 223 223 222 221 220 221 221 220 219 220 222 225 226 225 225 226 227 228 227 226 224 222 221 221 222 221 219 220 222
3 358 354 356 358 360 3 5 7 9 11 12 12 11 10 9 8 9 10 10 10 10 11 10 8 5 3 358 352 341 328 317 308 296 281 267 252 241 237 233 228 220 213 214 222 223 216 218 227 227 222 221 221 221 222 222 220 220 221 221 222 224 223 221 221 222 223 226 227 225 225 228 230 232 232 231 229 226 223 222 222 221 219 219 221
5 358 355 358 360 0 3 4 5 7 9 10 11 11 11 11 10 10 11 11 12 12 13 12 9 5 1 359 356 350 339 323 310 299 282 268 257 248 241 235 229 220 212 214 224 227 219 215 222 226 224 221 219 220 222 221 219 217 217 219 220 220 220 220 221 221 221 222 221 222 225 229 232 234 235 237 236 231 227 224 221 221 221 221 221
9 358 356 1 3 4 4 4 5 5 6 7 8 9 10 11 11 11 12 13 14 15 15 13 10 6 2 0 0 358 351 339 322 306 288 271 259 251 241 234 230 224 218 216 221 225 220 216 220 223 222 218 216 219 221 221 220 218 217 218 219 218 218 219 219 217 217 218 218 221 224 228 232 235 237 243 244 239 233 229 225 223 225 225 222
9 358 360 4 5 5 5 5 4 4 5 7 6 8 10 11 11 12 13 16 18 17 16 14 11 7 4 3 3 2 359 351 335 315 296 276 260 250 241 232 226 224 222 218 220 223 219 216 220 221 219 217 216 217 219 220 221 221 220 219 218 218 218 219 220 219 217 217 218 221 224 227 231 233 236 242 246 244 240 235 223 215 220 225 223
6 359 3 4 2 2 3 4 4 5 6 7 7 9 11 12 11 13 15 18 20 19 17 15 12 10 8 6 6 4 0 355 343 323 301 280 260 246 237 229 222 220 221 218 219 222 219 216 219 221 220 219 218 217 218 219 222 222 221 220 219 219 219 220 222 222 220 219 218 219 221 225 227 228 229 230 228 226 228 226 218 212 216 223 225
2 357 3 2 359 1 3 5 7 8 9 10 11 12 12 12 14 17 19 20 20 19 17 16 14 12 10 8 8 7 2 356 350 334 306 282 261 241 231 224 217 214 215 213 214 218 217 215 214 215 218 219 218 216 217 221 224 223 221 221 221 221 222 222 222 220 218 217 216 216 215 216 219 218 212 207 201 196 195 198 205 210 214 223 228
358 358 4 3 3 6 9 12 13 13 14 17 18 17 16 17 19 20 22 22 21 19 18 17 16 14 12 10 10 10 6 1 359 352 331 306 278 244 227 220 212 206 205 205 207 210 211 211 210 211 215 217 215 216 220 224 225 223 222 221 221 222 222 220 217 215 213 213 212 211 209 207 204 198 189 185 183 180 175 171 171 169 168 183 212
356 358 3 5 8 10 11 14 16 17 20 23 23 21 22 22 21 21 21 22 22 20 19 18 17 15 14 12 11 11 11 9 8 6 0 354 340 274 227 215 207 201 199 198 199 202 203 204 206 210 213 213 213 216 221 223 222 221 222 221 219 217 215 212 209 207 207 207 204 202 200 197 190 180 176 180 181 177 171 162 154 143 131 118 106
360 3 5 10 14 14 14 16 19 23 26 26 25 25 24 24 23 22 21 21 21 20 19 18 17 16 15 14 13 13 14 16 17 17 17 18 17 12 343 210 200 197 197 195 194 195 198 200 202 205 208 208 209 214 219 219 218 218 218 216 211 207 202 200 198 198 199 198 196 193 192 187 178 171 170 176 181 180 172 162 151 139 131 122 109
15 20 22 24 23 21 21 23 26 29 31 29 28 28 27 25 24 22 21 20 20 18 17 18 18 19 19 18 18 17 17 21 24 24 26 30 30 29 29 38 138 178 185 187 186 186 188 191 193 196 199 199 202 209 212 210 210 212 211 205 197 192 188 183 180 181 182 182 182 183 184 179 171 167 166 167 176 179 171 162 153 144 139 133 124
21 24 27 28 27 27 28 31 33 33 32 31 29 29 28 26 23 22 20 20 19 17 17 19 20 23 25 24 23 22 23 26 29 29 32 38 41 40 40 44 49 59 103 151 165 167 166 169 173 178 187 190 191 194 197 195 195 200 202 197 188 180 172 165 160 158 160 163 164 166 171 172 166 163 161 163 171 176 171 165 160 151 145 139 134
27 28 28 28 31 35 37 37 34 30 28 28 28 29 28 25 23 22 21 19 19 19 19 21 23 27 31 30 29 28 29 31 34 34 35 41 49 51 48 48 48 46 51 71 106 126 130 135 143 147 153 163 168 172 178 181 182 187 191 189 183 173 161 151 147 144 143 143 144 146 150 157 157 155 157 160 168 177 174 169 166 158 148 141 140
30 31 33 34 35 35 34 32 27 23 22 23 25 29 27 23 22 23 21 19 21 22 22 23 26 30 34 34 34 34 33 35 38 40 40 42 50 58 59 54 49 45 45 51 62 79 91 98 107 113 114 120 132 144 160 171 175 179 181 180 177 171 160 150 144 141 137 133 131 132 134 138 142 145 149 153 160 170 169 164 164 159 148 142 142
30 28 28 29 27 25 23 22 22 22 22 22 23 25 25 23 23 22 20 22 24 25 24 25 27 30 34 37 38 38 39 39 42 46 47 45 47 55 62 63 56 46 41 43 48 56 67 75 82 88 89 89 97 110 128 152 164 169 171 171 169 165 160 154 146 140 136 130 127 126 126 129 135 139 143 148 151 155 156 154 156 152 144 142 142
26 23 19 15 12 11 12 14 17 20 22 22 24 24 24 24 23 22 23 27 28 28 27 27 27 30 34 39 42 43 44 46 47 48 49 48 47 48 54 61 63 57 47 41 39 42 53 64 68 71 74 75 78 86 96 112 133 146 154 158 157 154 153 152 145 136 131 127 124 121 120 124 131 134 138 142 144 146 147 144 141 137 134 136 138
10 6 1 356 354 356 1 6 10 15 21 24 25 26 26 24 22 24 30 33 32 31 31 30 30 31 34 39 43 47 50 51 51 50 50 50 50 49 48 49 56 59 56 49 43 37 39 52 59 61 64 67 68 70 77 85 97 112 124 133 138 139 143 145 139 130 125 123 120 117 115 117 121 122 123 126 130 133 133 128 126 126 128 132 134
354 348 344 342 342 348 358 6 8 13 21 27 27 27 25 23 23 30 36 37 35 34 34 35 34 34 36 40 43 48 54 55 54 51 49 48 49 49 48 46 46 50 52 51 50 45 39 42 48 51 56 60 61 61 64 69 76 86 96 104 112 118 126 131 128 123 121 121 118 116 115 116 116 115 115 116 117 119 119 117 118 121 125 130 132
344 346 346 346 349 356 3 9 11 16 25 30 29 28 26 24 28 36 38 38 36 34 35 39 39 38 39 42 44 47 52 57 58 56 53 52 50 49 49 48 48 48 47 44 45 49 48 45 43 42 45 50 53 53 54 57 61 67 74 81 88 96 105 114 115 114 116 117 115 115 115 116 116 117 119 118 115 115 115 116 118 122 124 128 129
352 359 6 14 23 23 15 11 13 19 29 35 35 32 29 28 33 39 39 37 35 34 34 39 42 42 41 42 46 50 52 55 58 61 62 62 61 60 58 55 53 53 51 47 44 45 48 49 46 42 40 43 45 45 45 46 49 56 62 68 74 83 92 103 109 111 114 115 115 115 116 117 117 118 119 117 115 116 118 120 121 122 122 121 120
4 12 25 37 41 35 24 18 17 19 29 40 39 35 31 29 31 36 37 36 36 36 35 36 41 43 41 42 47 52 55 57 57 59 62 63 65 67 67 64 62 60 58 58 55 51 48 49 49 46 42 41 42 43 42 41 42 47 55 63 75 87 97 107 113 115 116 115 115 116 117 117 118 118 118 117 117 118 118 116 115 115 114 111 107
22 28 35 40 40 35 30 26 23 23 29 41 42 36 29 27 27 29 32 35 37 38 37 36 37 40 40 42 45 49 54 58 58 58 58 59 60 62 63 64 68 70 68 66 65 63 58 54 52 49 44 41 40 40 40 39 39 43 49 60 79 95 106 115 118 117 116 115 115 116 117 116 116 115 114 113 112 112 110 107 106 106 106 104 102
26 31 36 38 38 37 35 32 30 29 33 40 43 36 27 24 25 25 25 30 34 35 36 36 36 37 39 42 45 48 52 57 61 62 61 59 57 57 59 59 60 65 71 70 68 68 68 66 62 57 50 46 44 42 41 39 38 42 49 58 74 89 101 111 117 119 119 119 118 116 115 114 113 112 111 110 108 108 106 103 102 102 101 101 100
26 34 41 41 39 39 37 35 33 34 36 36 35 29 21 17 18 19 20 24 27 29 32 34 34 34 37 42 47 51 53 56 62 67 68 66 63 59 58 60 61 62 63 62 61 61 62 60 60 59 55 53 52 50 47 41 36 42 52 66 83 100 114 124 131 135 132 127 123 118 115 115 115 114 113 112 110 108 105 101 98 96 94 93 90
27 38 40 38 37 38 37 35 34 35 37 36 29 20 11 7 7 11 14 18 22 24 28 33 33 31 32 36 45 55 57 58 63 67 68 69 69 67 63 62 63 62 61 60 59 59 58 57 58 60 63 63 64 62 56 47 50 61 77 117 140 148 148 146 146 143 133 126 123 119 117 117 116 114 111 109 106 103 101 99 96 93 90 88 87